Weather History for Valparaiso, IN

Change the Weather History Date:

Monday, June 17, 2013

  Actual Average Record
Temperature  
Mean Temperature 76 °F 70 °F  
Max Temperature 87 °F 80 °F 91 °F (2007)
Min Temperature 64 °F 59 °F 47 °F (1999)
Cooling Degree Days 11 6  
Month to date cooling degree days 59 74  
Year to date cooling degree days 160 121  
Since 1 June cooling degree days 59 74  
Growing Degree Days 26 (Base 50)    
Moisture  
Dew Point 60 °F    
Average Humidity 62    
Maximum Humidity 96    
Minimum Humidity 32    
Precipitation  
Precipitation 0.00 in 0.11 in 0.43 in (2012)
Month to date precipitation 3.04 2.20  
Year to date precipitation 16.67 15.18  
Sea Level Pressure  
Sea Level Pressure 29.91 in    
Wind  
Wind Speed 6 mph (WSW)    
Max Wind Speed 17 mph    
Max Gust Speed 28 mph    
Visibility 10 miles    
Events      
T = Trace of Precipitation, MM = Missing Value Source: NWS Daily Summary

Daily Weather History Graph

Daily Weather History Graph

Search for Another Location

Airport:

Trip Planner

Search our weather history database for the weather conditions in past years. The results will help you decide how hot, cold, wet, or windy it might be!

Date:

Astronomy

Jun. 17, 2013 Rise Set
Actual Time 5:13 AM CDT 8:24 PM CDT
Civil Twilight 4:39 AM CDT 8:58 PM CDT
Nautical Twilight 3:56 AM CDT 9:41 PM CDT
Astronomical Twilight 3:04 AM CDT 10:34 PM CDT
Moon 1:59 PM CDT (6/17) 12:53 AM CDT (6/17)
Length of Visible Light 16h 18m
Length of Day
15h 10m
First Quarter, 60% of the Moon is Illuminated
Jun 17
First Quarter
Jun 23
Full
Jun 29
Last Quarter
Jul 8
New
Jul 15
First Quarter

Hourly Weather History & Observations

Time (CDT) Temp. Heat Index Dew Point Humidity Pressure Visibility Wind Dir Wind Speed Gust Speed Precip Events Conditions
12:53 AM 66.9 °F - 64.0 °F 90% 29.91 in 10.0 mi Calm Calm - N/A   Clear
1:53 AM 68.0 °F - 64.0 °F 87% 29.92 in 10.0 mi WSW 5.8 mph - N/A   Clear
2:53 AM 66.9 °F - 64.0 °F 90% 29.90 in 10.0 mi West 4.6 mph - N/A   Clear
3:53 AM 66.9 °F - 64.0 °F 90% 29.92 in 10.0 mi WSW 3.5 mph - N/A   Clear
4:53 AM 64.9 °F - 63.0 °F 93% 29.92 in 9.0 mi WSW 3.5 mph - N/A   Clear
5:53 AM 64.0 °F - 63.0 °F 96% 29.91 in 5.0 mi Calm Calm - N/A   Clear
6:53 AM 68.0 °F - 64.9 °F 90% 29.94 in 6.0 mi West 3.5 mph - N/A   Clear
7:53 AM 73.9 °F - 64.9 °F 73% 29.94 in 10.0 mi Calm Calm - N/A   Clear
8:53 AM 77.0 °F - 64.0 °F 64% 29.95 in 10.0 mi SW 4.6 mph - N/A   Clear
9:53 AM 80.1 °F 81.5 °F 63.0 °F 56% 29.95 in 10.0 mi SW 4.6 mph - N/A   Clear
10:53 AM 84.0 °F 82.6 °F 54.0 °F 35% 29.93 in 10.0 mi WSW 4.6 mph - N/A   Clear
11:53 AM 84.9 °F 83.6 °F 55.0 °F 36% 29.93 in 10.0 mi SW 5.8 mph - N/A   Clear
12:53 PM 84.0 °F 83.3 °F 57.0 °F 40% 29.93 in 10.0 mi SW 9.2 mph - N/A   Clear
1:53 PM 84.9 °F 83.6 °F 55.0 °F 36% 29.93 in 10.0 mi West 9.2 mph - N/A   Clear
2:53 PM 84.9 °F 83.7 °F 55.9 °F 37% 29.92 in 10.0 mi WSW 11.5 mph - N/A   Clear
3:53 PM 87.1 °F 85.1 °F 54.0 °F 32% 29.89 in 10.0 mi West 10.4 mph - N/A   Clear
4:53 PM 84.9 °F 83.6 °F 55.0 °F 36% 29.88 in 10.0 mi WSW 10.4 mph - N/A   Clear
5:53 PM 84.0 °F 82.9 °F 55.0 °F 37% 29.88 in 10.0 mi WSW 8.1 mph - N/A   Clear
6:53 PM 82.0 °F 81.7 °F 57.0 °F 42% 29.87 in 10.0 mi SSW 8.1 mph - N/A   Clear
7:53 PM 79.0 °F - 59.0 °F 50% 29.86 in 10.0 mi SSW 4.6 mph - N/A   Clear
8:53 PM 77.0 °F - 60.1 °F 56% 29.87 in 10.0 mi WSW 3.5 mph - N/A   Scattered Clouds
9:53 PM 70.0 °F - 57.0 °F 63% 29.92 in 10.0 mi North 9.2 mph 17.3 mph N/A   Mostly Cloudy
10:53 PM 68.0 °F - 59.0 °F 73% 29.90 in 10.0 mi ENE 5.8 mph - N/A   Overcast
11:53 PM 66.9 °F - 59.0 °F 76% 29.91 in 10.0 mi NNW 4.6 mph - N/A   Partly Cloudy